Overview Statistics Trail Chart Weather Telemetry Raw packets
 

This is the latest recevied weather packets stored in our database for station/object NR6G-12. If no packets are shown the sender has not sent any weather packets the latest 10 day(s).

<< 77 78 79 80 81 82 83 >>
Time Temp. Humidity Pressure Rain* Wind** Luminosity Snow
1787976732 20.56° C 60% 1020.1 hPa 0 mm - - -
1787976372 20.56° C 61% 1020 hPa 0 mm - - -
1787976013 20.56° C 60% 1020.1 hPa 0 mm - - -
1787975592 20.56° C 58% 1019.9 hPa 0 mm - - -
1787975232 20.56° C 58% 1019.9 hPa 0 mm - - -
1787974872 20.56° C 60% 1019.8 hPa 0 mm - - -
1787974511 20° C 60% 1019.8 hPa 0 mm - - -
1787974152 20° C 60% 1019.8 hPa 0 mm - - -
1787973792 20° C 61% 1019.8 hPa 0 mm - - -
1787973432 20.56° C 60% 1019.8 hPa 0 mm - - -
1787973072 20.56° C 58% 1019.7 hPa 0 mm - - -
1787972712 21.11° C 57% 1019.6 hPa 0 mm - - -
1787972352 21.11° C 56% 1019.6 hPa 0 mm - - -
1787971992 21.67° C 55% 1019.6 hPa 0 mm - - -
1787971632 21.67° C 53% 1019.6 hPa 0 mm - - -
1787971272 21.67° C 52% 1019.4 hPa 0 mm - - -
1787970912 21.67° C 55% 1019.5 hPa 0 mm - - -
1787970552 21.67° C 51% 1019.4 hPa 0 mm - - -
1787970192 22.22° C 51% 1019.6 hPa 0 mm - - -
1787969832 22.22° C 51% 1019.6 hPa 0 mm - - -
1787969472 22.22° C 51% 1019.8 hPa 0 mm - - -
1787969112 22.22° C 51% 1019.8 hPa 0 mm - - -
1787968752 22.22° C 51% 1019.8 hPa 0 mm - - -
1787968392 22.22° C 51% 1019.9 hPa 0 mm - - -
1787968032 22.22° C 51% 1020 hPa 0 mm - - -

* Rain latest hour (hover to see other rain measurements)
** Current wind speed in m/s (hover to see current wind gust speed)